QZS-3 (42917 NORAD) Tracking and Keplerian Element Data

This shows tracking and keplerian element data for the satellite.

Feedback or suggestion? Click here.




ElementValue
Catalog42917
NameQZS-3
Epoch Orbit477
Epoch Day348.41641287
Epoch Year2018
RAAN215.855
Inclination0.0562
Eccentricity0.000159
Argument of Perigee33.6279
Mean Anonmoly110.5132
Mean Motion1.0027393
Decay Rate-3.37E-06
L11 42917U 17048A 18348.41641287 -.00000337 00000-0 00000-0 0 9994
L22 42917 0.0562 215.8550 0001590 33.6279 110.5132 1.00273930 4775

Live tracking and technical data element details for QZS-3 (NORAD 42917). QZS-3 can be tracked NOW for your location showing map with azimuth and elevation plus other details from your city location.

Track the satellite on the map from your city or location and see movement details for azimuth, elevation, latitude, longitude, range, height, and movement on the map or in text.







IsCatalogInMostPopularTable: catalog: 42917, numindb: 149
Update: records affected: 1



GetName: 42917 QZS-3

Hit Count: updated at: Sat, 15 Dec 2018 13:59:19 GMT